Location: *
(51.2167°N, 10.0667°E)
Time: 02:07:50
(UTC+00:00)

Cosmos 2263 - Pass Details

Date: 12 December 2019
Orbit: 829 x 868 km, 70.9° (Epoch: 22 January)

Event Time Altitude Azimuth Distance (km) Brightness Sun altitude
Rises 17:47:29 0° 330° (NNW) 3,457 7.7 -23.0°
Reaches altitude 10° 17:49:59 10° 334° (NNW) 2,519 6.9 -23.4°
Maximum altitude 17:55:45 63° 55° (NE) 966 4.2 -24.3°
Enters shadow 17:56:17 60° 83° (E) 989 4.2 -24.4°
